STARLINK-34399

Last updated on Thu Jul 03 2025 00:02:07 GMT+0000 (Coordinated Universal Time)

1 64444U 25130G 25183.58335648 -.01208433 00000+0 -88842-2 0 9998 2 64444 53.1560 179.7704 0001097 68.7914 53.1440 15.75271731 3527
UTC large
Height (km)
Speed (km/s)
/
Latitude / Longitude
Inclination (degrees)
Orbital Period (minutes)
Azimuth
Elevation
Range (km)
Doppler Factor

Next 0 passes for location: London (51.5072 / 0.1276)

Sorry there are no passes over London.